AirNav   Phillips 66 Aviation Fuel
 
 1037 users online  

AL05 Sehoy Airport
Hurtsboro, Alabama, USA

GOING TO HURTSBORO?


FAA INFORMATION EFFECTIVE 24 MAY 2018

Location

FAA Identifier: AL05
Lat/Long: 32-13-16.8096N / 085-28-18.4188W
32-13.280160N / 085-28.306980W
32.2213360 / -85.4717830
(estimated)
Elevation: 331 ft. / 101 m (estimated)
Variation: 01E (1985)
From city: 3 miles SW of HURTSBORO, AL
Time zone: UTC -5 (UTC -6 during Standard Time)
Zip code: 36860

Airport Operations

Airport use: Private use. Permission required prior to landing
Control tower: no
ARTCC: ATLANTA CENTER
FSS: ANNISTON FLIGHT SERVICE STATION
Attendance: UNATNDD
Wind indicator: lighted
Segmented circle: yes
Lights: RWY LGTS ON REQ; MON-FRI FROM 0730 TO 1530 CALL 334-253-2100. AFTER HRS AND WKENDS CALL 706-773-3167.
Beacon: white-green (lighted land airport)
ROTG BCN ON REQ; MON-FRI FROM 0730 TO 1530 CALL 334-253-2100. AFTER HRS AND WKENDS CALL 706-773-3167.

Nearby radio navigation aids

VOR radial/distance  VOR name  Freq  Var
TGEr146/18.7TUSKEGEE VOR/DME117.3002E
EUFr311/23.8EUFAULA VORTAC109.2002E
LSFr257/25.2LAWSON VOR/DME111.4002W
CSGr223/33.0COLUMBUS VORTAC117.1001E

 
NDB name  Hdg/Dist  Freq  Var  ID
LAWSON261/23.233502WAWS .- .-- ...
BLOOD058/39.936504WTOI - --- ..

Airport Services

Parking: hangars

Runway Information

Runway 4/22

Dimensions: 5000 x 75 ft. / 1524 x 23 m
Surface: asphalt, in good condition
Runway edge lights: medium intensity
RUNWAY 4  RUNWAY 22
Latitude: 32-12.963720N32-13.596600N
Longitude: 085-28.617360W085-27.996600W
Elevation: 331.0 ft.324.0 ft.
Traffic pattern: leftleft
Markings: basic, in good conditionbasic, in good condition
Visual slope indicator: 2-box VASI on left2-box VASI on left
Touchdown point: yes, no lightsyes, no lights
Obstructions: 52 ft. trees, 800 ft. from runway, 300 ft. left of centerline, 11:1 slope to clear57 ft. trees, 750 ft. from runway, 275 ft. left of centerline, 9:1 slope to clear

Airport Ownership and Management from official FAA records

Ownership: Privately-owned
Owner: STEVE WILLIAMS
6475 OLD WEST POINT ROAD
LA GRANGE, GA 30240
Phone 706-884-6398
Manager: STEVE WILLIAMS
6475 OLD WEST POINT ROAD
LA GRANGE, GA 30240
Phone 706-884-6398

Airport Operational Statistics

Aircraft operations: avg 22/month *
92% local general aviation
8% transient general aviation
* for 12-month period ending 07 February 1990

Instrument Procedures

There are no published instrument procedures at AL05.

Some nearby airports with instrument procedures:

06A - Moton Field Municipal Airport (18 nm NW)
11A - Clayton Municipal Airport (20 nm S)
KAUO - Auburn University Regional Airport (24 nm N)
KEUF - Weedon Field Airport (24 nm SE)
KLSF - Lawson Army Airfield (Fort Benning) (25 nm E)
 
Loc | Ops | Rwys | IFR | FBO | Links
Com | Nav | Svcs | Stats | Notes

AirNav Hotels Sweepstakes
 
Area around AL05 (Sehoy Airport)
 
Road maps at: MapQuest Bing Google
 
Aerial photo
WARNING: Photo may not be current or correct
Aerial photo of AL05 (Sehoy Airport)
Photo courtesy of AirNav, LLC
Photo taken 05-May-2011
looking west.

Do you have a better or more recent aerial photo of Sehoy Airport that you would like to share? If so, please send us your photo.

 
Sectional chart

 
Airport distance calculator
Flying to Sehoy Airport? Find the distance to fly.

From to AL05

Sunrise and sunset
Times for 24-May-2018
 Local
(UTC-5)
 Zulu
(UTC)
Morning civil twilight05:1210:12
Sunrise05:4010:40
Sunset19:3700:37
Evening civil twilight20:0501:05

Current date and time
Zulu (UTC)  24-May-2018 22:45:19
Local (UTC-5)  24-May-2018 17:45:19
 
METAR
KEUF 
24nm SE 
242158Z AUTO VRB03KT 10SM FEW027 29/23 A3000 RMK AO2 SLP154 T02940228
KAUO 
24nm N 
242156Z AUTO 00000KT 10SM CLR 27/21 A3006 RMK AO2 SLP188 T02720211
KLSF 
25nm E 
242156Z AUTO 01007KT 10SM FEW032 BKN140 28/23 A3000 RMK AO2 SLPNO T02810228
KCSG 
32nm NE 
242151Z 04003KT 10SM -RA FEW070 SCT090 OVC110 26/22 A3002 RMK AO2 SLP161 P0002 T02560222
KTOI 
36nm SW 
242153Z AUTO 33005KT 10SM CLR 26/21 A3003 RMK AO2 LTG DSNT E AND SE SLP164 T02610206
KMXF 
46nm W 
242226Z AUTO 29003KT 10SM SCT006 OVC150 23/22 A3002 RMK AO2 SLP167 $
KMGM 
47nm W 
242153Z 26006KT 10SM 23/22 A3004 RMK AO2 SLP168 T02330222 $
TAF
KLSF 
25nm E 
241835Z 2418/2523 22006KT 8000 -SHRA SCT010 BKN020 BKN100 OVC150 QNH3003INS TEMPO 2418/2424 25010G15KT 6000 -TSRA BKN015CB BECMG 2423/2424 12006KT 9999 NSW BKN030 BKN150 QNH3001INS BECMG 2505/2506 09003KT 8000 BR BKN020 QNH2999INS TEMPO 2509/2512 3200 BR BKN010 BECMG 2514/2515 12006KT 9999 NSW BKN025 BKN100 QNH3003INS BECMG 2517/2518 15006KT 9000 -SHRA VCTS OVC025CB QNH3000INS TX29/2421Z TN21/2512Z
NOTAMs
Click for the latest NOTAMs
NOTAMs are issued by the DoD/FAA and will open in a separate window not controlled by AirNav.

 

 
 

Would you like to see your business listed on this page?

 If your business provides an interesting product or service to pilots, flight crews, aircraft, or users of the Sehoy Airport, you should consider listing it here.  To start the listing process, click on the button below
 
Add a business
 

Other Pages about Sehoy Airport

Update a link
 
Copyright © AirNav, LLC. All rights reserved. Privacy Policy  Contact